FW2916 Weather Reports


Display with metric or nautical units.
time (UTC)temp
F
wind
direction
speed
MPH
gust
MPH
rain 1hr
in
rain 24hr
in
rain mn
in
humidity
%
barometer
mb
20260508013041 62 0 0.0 2.0 0.00 0.00 0.00 61 1010.3
20260508011537 63 0 0.0 1.0 0.00 0.00 0.00 60 1010.3
20260508010042 64 0 0.0 2.0 0.00 0.00 0.00 58 1010.2
20260508004540 65 104 0.0 1.0 0.00 0.00 0.00 55 1010.2
20260508003037 66 143 0.0 4.0 0.00 0.00 0.00 54 1010.3
20260508001541 67 183 0.0 4.0 0.00 0.00 0.00 51 1010.4
20260508000040 68 141 0.0 6.0 0.00 0.00 0.00 51 1010.6
20260507234543 69 227 0.0 5.0 0.00 0.00 0.00 51 1010.6
20260507233039 70 162 1.0 6.0 0.00 0.00 0.00 47 1010.8
20260507231535 70 117 0.0 8.0 0.00 0.00 0.00 48 1010.8
20260507230046 71 189 1.0 7.0 0.00 0.00 0.00 47 1010.9
20260507224541 70 184 1.0 7.0 0.00 0.00 0.00 48 1011.1
20260507223040 70 159 2.0 5.0 0.00 0.00 0.00 47 1011.0
20260507221536 71 125 2.0 9.0 0.00 0.00 0.00 47 1011.1
20260507220041 71 240 2.0 7.0 0.00 0.00 0.00 49 1011.2
20260507214602 71 148 1.0 10.0 0.00 0.00 0.00 49 1011.3
20260507213041 71 331 2.0 8.0 0.00 0.00 0.00 50 1011.6
20260507211536 70 306 2.0 8.0 0.00 0.00 0.00 50 1011.8
20260507210048 70 164 3.0 8.0 0.00 0.00 0.00 50 1012.2
20260507204541 70 219 3.0 8.0 0.00 0.00 0.00 50 1012.5
20260507203049 69 224 1.0 10.0 0.00 0.00 0.00 53 1012.8
20260507201545 69 166 2.0 8.0 0.00 0.00 0.00 52 1013.0
20260507200039 68 168 1.0 13.0 0.00 0.00 0.00 52 1013.2
20260507194610 68 139 3.0 12.0 0.00 0.00 0.00 54 1013.3
20260507193042 68 131 2.0 9.0 0.00 0.00 0.00 55 1013.5
20260507191544 67 134 3.0 10.0 0.00 0.00 0.00 56 1013.7
20260507190037 66 218 4.0 8.0 0.00 0.00 0.00 55 1013.9
20260507184539 67 299 2.0 9.0 0.00 0.00 0.00 56 1014.2
20260507183038 66 0 3.0 12.0 0.00 0.00 0.00 58 1014.4
20260507181540 66 142 2.0 8.0 0.00 0.00 0.00 61 1014.7
20260507180041 65 224 2.0 6.0 0.00 0.00 0.00 58 1015.0
20260507174543 64 255 2.0 10.0 0.00 0.00 0.00 58 1015.1
20260507173039 64 130 1.0 7.0 0.00 0.00 0.00 58 1015.2
20260507171540 64 122 3.0 10.0 0.00 0.00 0.00 58 1015.3
20260507170041 63 265 3.0 9.0 0.00 0.00 0.00 60 1015.7
20260507164542 62 58 1.0 7.0 0.00 0.00 0.00 62 1015.9
20260507163040 62 292 1.0 7.0 0.00 0.00 0.00 61 1016.0
20260507161539 63 169 1.0 8.0 0.00 0.00 0.00 62 1016.0
20260507160036 63 131 1.0 9.0 0.00 0.00 0.00 60 1016.0
20260507154541 63 243 2.0 8.0 0.00 0.00 0.00 58 1016.2
20260507153044 63 241 2.0 8.0 0.00 0.00 0.00 60 1016.3
20260507151540 62 304 1.0 8.0 0.00 0.00 0.00 62 1016.5
20260507150040 61 295 2.0 7.0 0.00 0.00 0.00 63 1016.6
20260507144540 61 238 2.0 8.0 0.00 0.00 0.00 63 1016.6
20260507143040 60 266 1.0 8.0 0.00 0.00 0.00 65 1016.6
20260507141543 58 29 2.0 6.0 0.00 0.00 0.00 68 1016.6
20260507140040 57 227 1.0 6.0 0.00 0.00 0.00 69 1016.8
20260507134538 56 208 1.0 6.0 0.00 0.00 0.00 72 1016.7
20260507133035 54 177 0.0 2.0 0.00 0.00 0.00 77 1016.8
20260507131601 51 146 0.0 2.0 0.00 0.00 0.00 80 1016.9
20260507130042 48 172 0.0 2.0 0.00 0.00 0.00 84 1017.2
20260507124543 45 0 0.0 2.0 0.00 0.00 0.00 89 1017.2
20260507123043 42 0 0.0 1.0 0.00 0.00 0.00 96 1017.2
20260507121535 39 0 0.0 0.0 0.00 0.00 0.00 96 1017.1
20260507120043 38 0 0.0 0.0 0.00 0.00 0.00 95 1017.2
20260507114545 37 0 0.0 0.0 0.00 0.00 0.00 95 1017.1
20260507113040 37 0 0.0 0.0 0.00 0.00 0.00 95 1016.9
20260507111536 37 0 0.0 0.0 0.00 0.00 0.00 95 1016.9
20260507110037 37 0 0.0 0.0 0.00 0.00 0.00 95 1016.8
20260507104540 37 0 0.0 0.0 0.00 0.00 0.00 95 1016.8
20260507103042 37 0 0.0 0.0 0.00 0.00 0.00 95 1016.7
20260507101540 37 0 0.0 0.0 0.00 0.00 0.00 94 1016.8
20260507100036 38 0 0.0 0.0 0.00 0.00 0.00 94 1016.8
20260507094535 38 0 0.0 0.0 0.00 0.00 0.00 94 1017.1
20260507093038 38 0 0.0 0.0 0.00 0.00 0.00 94 1017.1
20260507091541 37 0 0.0 0.0 0.00 0.00 0.00 94 1017.1
20260507090040 38 0 0.0 0.0 0.00 0.00 0.00 93 1017.1
20260507084536 37 0 0.0 0.0 0.00 0.00 0.00 92 1017.1
20260507083036 38 0 0.0 0.0 0.00 0.00 0.00 92 1017.2
20260507081535 38 0 0.0 0.0 0.00 0.00 0.00 91 1017.3
20260507080042 39 0 0.0 0.0 0.00 0.00 0.00 91 1017.1
20260507074541 39 0 0.0 0.0 0.00 0.00 0.00 89 1017.2
20260507073037 40 0 0.0 0.0 0.00 0.00 0.00 89 1017.3
20260507071559 41 0 0.0 0.0 0.00 0.00 0.00 87 1017.4
20260507070045 42 0 0.0 0.0 0.00 0.00 0.00 87 1017.7
20260507064540 42 0 0.0 0.0 0.00 0.02 0.00 88 1017.8
20260507063045 42 0 0.0 0.0 0.00 0.02 0.00 87 1017.9
20260507061535 42 0 0.0 0.0 0.00 0.02 0.00 86 1018.0
20260507060038 42 0 0.0 0.0 0.00 0.02 0.00 86 1018.0
20260507054535 41 0 0.0 0.0 0.00 0.02 0.00 85 1018.1
20260507053109 41 0 0.0 0.0 0.00 0.02 0.00 85 1018.1
20260507051544 40 0 0.0 0.0 0.00 0.02 0.00 86 1018.0
20260507050043 40 0 0.0 0.0 0.00 0.02 0.00 88 1018.0
20260507044535 41 0 0.0 0.0 0.00 0.02 0.02 88 1018.1
20260507043042 41 0 0.0 0.0 0.00 0.02 0.02 88 1017.9
20260507041540 41 0 0.0 0.0 0.00 0.02 0.02 89 1018.0
20260507040045 41 0 0.0 0.0 0.00 0.02 0.02 88 1018.2
20260507034538 41 0 0.0 0.0 0.00 0.02 0.02 86 1018.3
20260507033043 42 0 0.0 0.0 0.00 0.02 0.02 83 1018.1
20260507031541 43 0 0.0 0.0 0.00 0.02 0.02 81 1018.2
20260507030046 43 0 0.0 0.0 0.00 0.02 0.02 77 1018.1
20260507024542 44 0 0.0 0.0 0.00 0.02 0.02 72 1018.1
20260507023040 45 0 0.0 0.0 0.00 0.02 0.02 69 1017.8
20260507021544 46 0 0.0 0.0 0.00 0.02 0.02 67 1017.7
20260507020040 47 0 0.0 0.0 0.00 0.02 0.02 64 1017.6
20260507014551 49 0 0.0 0.0 0.00 0.02 0.02 62 1017.4